VA2CPJ Weather Reports


time (UTC)temp
C
wind
direction
speed
KPH
gust
KPH
rain 1hr
cm
rain 24hr
cm
rain mn
cm
humidity
%
barometer
mb
20260504173618 6 308 11.3 16.1 0.00 0.00 0.00 86 1013.7
20260504173552 6 303 9.7 12.9 0.00 0.00 0.00 86 1013.7
20260504173034 6 265 6.4 9.7 0.00 0.00 0.00 87 1013.0
20260504172545 5 282 9.7 14.5 0.00 0.00 0.00 87 1014.0
20260504172524 5 286 8.0 11.3 0.00 0.00 0.00 87 1013.7
20260504172215 5 290 11.3 16.1 0.00 0.00 0.00 86 1013.0
20260504171628 5 287 8.0 14.5 0.00 0.00 0.00 86 1013.7
20260504171533 5 289 9.7 12.9 0.00 0.00 0.00 86 1013.7
20260504171033 5 316 8.0 16.1 0.00 0.00 0.00 88 1013.0
20260504170540 5 321 6.4 14.5 0.00 0.00 0.00 89 1013.7
20260504170529 5 320 8.0 14.5 0.00 0.00 0.00 89 1013.7
20260504170109 5 254 6.4 11.3 0.00 0.00 0.00 90 1013.0
20260504151054 3 319 6.4 8.0 0.00 0.00 0.00 91 1013.0
20260504150556 3 341 4.8 6.4 0.00 0.00 0.00 91 1013.7
20260504150518 3 326 4.8 8.0 0.00 0.00 0.00 90 1014.0
20260504141040 4 269 3.2 6.4 0.00 0.00 0.00 79 1013.0
20260504140633 4 226 4.8 8.0 0.00 0.00 0.00 77 1013.7
20260504140522 4 236 4.8 8.0 0.00 0.00 0.00 77 1014.0
20260504130627 5 338 3.2 4.8 0.00 0.00 0.00 66 1013.7
20260504130526 5 334 3.2 6.4 0.00 0.00 0.00 66 1014.0
20260504110554 4 97 4.8 6.4 0.00 0.00 0.00 63 1014.0
20260504110533 4 95 6.4 8.0 0.00 0.00 0.00 62 1014.3
20260504100555 1 103 4.8 8.0 0.00 0.00 0.00 75 1014.3
20260504100528 1 102 4.8 6.4 0.00 0.00 0.00 75 1014.0
20260504081615 0 100 6.4 8.0 0.00 0.00 0.00 77 1014.3
20260504081522 0 106 4.8 6.4 0.00 0.00 0.00 77 1014.3
20260504081025 0 106 4.8 8.0 0.00 0.00 0.00 77 1013.7
20260504080602 0 109 6.4 8.0 0.00 0.00 0.00 78 1014.3
20260504080527 0 106 6.4 8.0 0.00 0.00 0.00 78 1014.3
20260504050538 3 87 4.8 6.4 0.00 0.00 0.00 64 1015.0
20260504050521 3 88 4.8 9.7 0.00 0.00 0.00 64 1015.0
20260504050023 3 125 4.8 9.7 0.00 0.00 0.00 63 1014.3
20260504045600 3 68 4.8 6.4 0.00 0.00 0.00 63 1015.0
20260504045526 3 68 4.8 6.4 0.00 0.00 0.00 63 1015.0
20260504045019 4 45 4.8 6.4 0.00 0.00 0.00 60 1014.3
20260504044606 3 47 3.2 4.8 0.00 0.00 0.00 61 1015.0
20260504044531 3 39 3.2 4.8 0.00 0.00 0.00 61 1015.4
20260504044045 3 33 4.8 6.4 0.00 0.00 0.00 63 1014.3
20260504043553 4 48 4.8 4.8 0.00 0.00 0.00 63 1015.0
20260504043527 4 46 4.8 4.8 0.00 0.00 0.00 63 1015.4
20260504043029 4 45 3.2 6.4 0.00 0.00 0.00 63 1014.3
20260504042532 4 45 4.8 6.4 0.00 0.00 0.00 64 1015.4
20260504042523 4 43 4.8 6.4 0.00 0.00 0.00 64 1015.4
20260504042025 4 40 4.8 4.8 0.00 0.00 0.00 64 1014.7
20260504041519 3 59 4.8 6.4 0.00 0.00 0.00 67 1015.4
20260504041030 4 54 4.8 8.0 0.00 0.00 0.00 65 1014.3
20260504040533 4 55 4.8 6.4 0.00 0.00 0.00 65 1015.4
20260504040525 4 54 4.8 6.4 0.00 0.00 0.00 65 1015.4
20260504040027 4 52 4.8 6.4 0.00 0.00 0.00 64 1014.7
20260504035604 5 48 4.8 4.8 0.00 0.00 0.00 64 1015.4
20260504035521 5 50 3.2 4.8 0.00 0.00 0.00 63 1015.4
20260504035023 5 47 3.2 6.4 0.00 0.00 0.00 64 1014.7
20260504034653 5 19 1.6 3.2 0.00 0.00 0.00 65 1015.4
20260504034534 5 20 1.6 4.8 0.00 0.00 0.00 65 1015.4
20260504034019 5 41 1.6 4.8 0.00 0.00 0.00 63 1014.7
20260504033619 5 42 1.6 4.8 0.00 0.00 0.00 62 1015.4
20260504033531 5 38 1.6 4.8 0.00 0.00 0.00 62 1015.4
20260504033024 5 14 1.6 4.8 0.00 0.00 0.00 60 1014.7
20260504032545 5 324 3.2 3.2 0.00 0.00 0.00 59 1015.4
20260504032527 5 341 3.2 4.8 0.00 0.00 0.00 58 1015.4
20260504032113 5 310 3.2 4.8 0.00 0.00 0.00 59 1014.7
20260504031540 5 304 1.6 4.8 0.00 0.00 0.00 60 1015.4
20260504031523 5 312 1.6 4.8 0.00 0.00 0.00 60 1015.4
20260504031034 5 248 1.6 4.8 0.00 0.00 0.00 61 1014.7
20260504030621 5 330 3.2 4.8 0.00 0.00 0.00 58 1015.4
20260504030519 5 323 1.6 4.8 0.00 0.00 0.00 58 1015.4
20260504030042 5 43 3.2 4.8 0.00 0.00 0.00 56 1014.7
20260504025714 5 60 4.8 6.4 0.00 0.00 0.00 56 1015.4
20260504025524 5 59 4.8 6.4 0.00 0.00 0.00 56 1015.4
20260504025048 5 62 4.8 6.4 0.00 0.00 0.00 56 1014.3
20260504024520 5 71 3.2 3.2 0.00 0.00 0.00 56 1015.4
20260504024124 5 56 4.8 6.4 0.00 0.00 0.00 57 1014.3
20260504023525 5 65 4.8 6.4 0.00 0.00 0.00 57 1015.4
20260504023059 5 66 4.8 6.4 0.00 0.00 0.00 56 1014.3
20260504022712 5 72 4.8 4.8 0.00 0.00 0.00 57 1015.4
20260504022540 5 74 4.8 4.8 0.00 0.00 0.00 57 1015.4
20260504022024 5 72 4.8 6.4 0.00 0.00 0.00 57 1014.7
20260504021555 5 70 4.8 4.8 0.00 0.00 0.00 56 1015.4
20260504021527 5 69 4.8 6.4 0.00 0.00 0.00 56 1015.4
20260504021055 5 71 4.8 6.4 0.00 0.00 0.00 55 1014.7
20260504020523 5 72 4.8 4.8 0.00 0.00 0.00 54 1015.4
20260504020026 5 59 4.8 6.4 0.00 0.00 0.00 54 1014.7
20260504015527 5 60 4.8 4.8 0.00 0.00 0.00 53 1015.4
20260504015520 5 65 4.8 4.8 0.00 0.00 0.00 53 1015.4
20260504015039 5 58 3.2 4.8 0.00 0.00 0.00 52 1014.3
20260504014554 6 65 4.8 4.8 0.00 0.00 0.00 53 1015.4
20260504014524 5 63 4.8 4.8 0.00 0.00 0.00 52 1015.4
20260504014053 6 58 4.8 4.8 0.00 0.00 0.00 51 1014.3
20260504013714 6 64 4.8 4.8 0.00 0.00 0.00 50 1015.4
20260504013520 6 61 4.8 6.4 0.00 0.00 0.00 51 1015.4
20260504013133 6 63 4.8 4.8 0.00 0.00 0.00 51 1014.3
20260504012618 6 56 4.8 6.4 0.00 0.00 0.00 50 1015.4
20260504012525 6 61 4.8 6.4 0.00 0.00 0.00 50 1015.4
20260504012057 6 51 4.8 4.8 0.00 0.00 0.00 50 1014.7
20260504011636 6 47 3.2 4.8 0.00 0.00 0.00 50 1015.4
20260504011542 6 49 3.2 4.8 0.00 0.00 0.00 50 1015.4
20260504011042 6 54 3.2 4.8 0.00 0.00 0.00 50 1014.3
20260504010610 6 55 4.8 4.8 0.00 0.00 0.00 49 1015.0
20260504010526 6 46 3.2 4.8 0.00 0.00 0.00 49 1015.4
20260504010020 6 54 3.2 4.8 0.00 0.00 0.00 49 1014.3
20260504005549 6 65 4.8 4.8 0.00 0.00 0.00 48 1015.4
20260504005025 6 61 3.2 4.8 0.00 0.00 0.00 47 1014.3
20260504004612 6 55 3.2 4.8 0.00 0.00 0.00 47 1015.0
20260504004554 6 61 3.2 6.4 0.00 0.00 0.00 47 1015.4
20260504004041 6 52 3.2 4.8 0.00 0.00 0.00 46 1014.3
20260504003643 7 58 3.2 6.4 0.00 0.00 0.00 45 1015.0
20260504003533 7 60 4.8 8.0 0.00 0.00 0.00 45 1015.4
20260504003027 7 52 4.8 8.0 0.00 0.00 0.00 45 1014.3
20260504002723 7 21 4.8 8.0 0.00 0.00 0.00 45 1015.0
20260504002529 7 31 4.8 8.0 0.00 0.00 0.00 45 1015.0
20260504002023 7 51 4.8 8.0 0.00 0.00 0.00 45 1014.3
20260504001545 7 65 4.8 6.4 0.00 0.00 0.00 45 1015.0
20260504001534 7 36 4.8 9.7 0.00 0.00 0.00 45 1015.0
20260504001150 7 56 4.8 8.0 0.00 0.00 0.00 46 1014.3
20260504000539 7 13 4.8 6.4 0.00 0.00 0.00 44 1015.0
20260504000521 7 28 4.8 6.4 0.00 0.00 0.00 44 1015.0
20260504000041 7 17 6.4 9.7 0.00 0.00 0.00 44 1014.0
20260503235610 7 2 6.4 8.0 0.00 0.00 0.00 43 1015.0
20260503235555 7 12 6.4 8.0 0.00 0.00 0.00 43 1015.0
20260503235029 8 20 3.2 8.0 0.00 0.00 0.00 43 1014.0
20260503234615 8 8 3.2 6.4 0.00 0.00 0.00 42 1015.0
20260503234523 8 6 4.8 9.7 0.00 0.00 0.00 42 1015.0
20260503234026 8 12 4.8 11.3 0.00 0.00 0.00 42 1014.0
20260503233554 8 336 6.4 9.7 0.00 0.00 0.00 41 1015.0
20260503233519 8 350 6.4 9.7 0.00 0.00 0.00 41 1015.0
20260503233021 8 336 9.7 19.3 0.00 0.00 0.00 41 1014.0
20260503232550 8 333 9.7 17.7 0.00 0.00 0.00 41 1014.7
20260503232533 8 342 9.7 20.9 0.00 0.00 0.00 41 1014.7
20260503232027 8 0 6.4 9.7 0.00 0.00 0.00 41 1014.0
20260503231656 8 336 9.7 12.9 0.00 0.00 0.00 41 1014.7
20260503231521 8 339 9.7 16.1 0.00 0.00 0.00 41 1014.7
20260503231040 8 331 12.9 22.5 0.00 0.00 0.00 40 1014.0
20260503230739 8 344 8.0 17.7 0.00 0.00 0.00 41 1014.7
20260503230525 8 330 14.5 29.0 0.00 0.00 0.00 41 1014.7
20260503230019 8 327 12.9 22.5 0.00 0.00 0.00 41 1014.0
20260503225548 8 329 9.7 19.3 0.00 0.00 0.00 41 1014.7
20260503225530 8 328 14.5 33.8 0.00 0.00 0.00 41 1015.0
20260503225024 8 330 12.9 24.1 0.00 0.00 0.00 40 1014.0
20260503224535 9 329 11.3 20.9 0.00 0.00 0.00 39 1014.7
20260503224527 9 342 8.0 12.9 0.00 0.00 0.00 40 1014.7
20260503224020 10 334 11.3 20.9 0.00 0.00 0.00 39 1014.0
20260503223618 9 324 12.9 22.5 0.00 0.00 0.00 40 1014.7
20260503223531 9 326 12.9 22.5 0.00 0.00 0.00 40 1014.7
20260503223045 10 334 9.7 20.9 0.00 0.00 0.00 40 1013.7
20260503222540 9 325 14.5 24.1 0.00 0.00 0.00 40 1014.7
20260503222527 9 333 9.7 20.9 0.00 0.00 0.00 40 1014.7
20260503222021 10 320 14.5 27.4 0.00 0.00 0.00 40 1013.7
20260503221616 10 14 11.3 14.5 0.00 0.00 0.00 38 1014.7
20260503221533 10 349 9.7 19.3 0.00 0.00 0.00 39 1014.7
20260503221026 10 342 9.7 20.9 0.00 0.00 0.00 39 1013.7
20260503220842 10 331 12.9 22.5 0.00 0.00 0.00 38 1014.3
20260503220520 10 341 9.7 19.3 0.00 0.00 0.00 38 1014.7
20260503220106 10 354 9.7 19.3 0.00 0.00 0.00 38 1013.7
20260503215618 11 355 6.4 9.7 0.00 0.00 0.00 38 1014.3
20260503215534 11 348 8.0 16.1 0.00 0.00 0.00 38 1014.7
20260503215045 10 342 8.0 12.9 0.00 0.00 0.00 38 1013.7
20260503214530 10 328 11.3 22.5 0.00 0.00 0.00 39 1014.7
20260503214024 8 325 12.9 20.9 0.00 0.00 0.00 41 1013.7
20260503213711 9 338 11.3 17.7 0.00 0.00 0.00 40 1014.7
20260503213526 9 331 12.9 27.4 0.00 0.00 0.00 39 1014.7
20260503213029 10 331 11.3 19.3 0.00 0.00 0.00 39 1013.7
20260503212543 10 349 8.0 9.7 0.00 0.00 0.00 40 1014.7
20260503212025 10 334 9.7 16.1 0.00 0.00 0.00 39 1013.7
20260503211629 10 327 16.1 29.0 0.00 0.00 0.00 39 1014.7
20260503211528 10 327 14.5 27.4 0.00 0.00 0.00 39 1014.7
20260503211030 10 328 9.7 25.7 0.00 0.00 0.00 39 1014.0
20260503210651 10 327 12.9 24.1 0.00 0.00 0.00 39 1014.7
20260503210533 10 329 11.3 24.1 0.00 0.00 0.00 39 1014.7
20260503210044 10 348 8.0 12.9 0.00 0.00 0.00 41 1014.0
20260503205723 9 333 8.0 11.3 0.00 0.00 0.00 42 1014.7
20260503205558 9 331 9.7 19.3 0.00 0.00 0.00 41 1014.7
20260503205049 9 330 11.3 19.3 0.00 0.00 0.00 41 1014.0
20260503204534 9 333 9.7 19.3 0.00 0.00 0.00 40 1014.7
20260503204112 10 322 12.9 19.3 0.00 0.00 0.00 39 1013.7
20260503203605 9 326 9.7 9.7 0.00 0.00 0.00 39 1014.7
20260503203521 10 327 12.9 25.7 0.00 0.00 0.00 39 1014.7
20260503203032 10 312 17.7 33.8 0.00 0.00 0.00 39 1014.0
20260503202747 10 318 17.7 27.4 0.00 0.00 0.00 38 1014.7
20260503202602 10 322 17.7 25.7 0.00 0.00 0.00 38 1014.7
20260503202021 10 319 17.7 27.4 0.00 0.00 0.00 38 1013.7
20260503201641 10 320 14.5 17.7 0.00 0.00 0.00 38 1014.7
20260503201523 10 321 16.1 22.5 0.00 0.00 0.00 38 1014.7
20260503201025 10 324 12.9 25.7 0.00 0.00 0.00 39 1013.7
20260503200617 10 332 9.7 17.7 0.00 0.00 0.00 39 1014.7
20260503200545 10 332 9.7 16.1 0.00 0.00 0.00 39 1014.7
20260503200021 10 345 8.0 12.9 0.00 0.00 0.00 39 1014.0
20260503195607 10 308 12.9 19.3 0.00 0.00 0.00 38 1014.7
20260503195544 9 317 14.5 20.9 0.00 0.00 0.00 38 1014.7
20260503195027 9 322 14.5 27.4 0.00 0.00 0.00 39 1013.7
20260503194928 10 321 12.9 16.1 0.00 0.00 0.00 39 1014.7
20260503194520 10 328 11.3 22.5 0.00 0.00 0.00 40 1014.7
20260503194032 10 322 14.5 30.6 0.00 0.00 0.00 40 1013.7
20260503193543 10 316 17.7 22.5 0.00 0.00 0.00 39 1014.7
20260503193525 9 315 12.9 29.0 0.00 0.00 0.00 39 1014.7
20260503193048 10 326 12.9 24.1 0.00 0.00 0.00 39 1013.7
20260503192706 9 320 8.0 14.5 0.00 0.00 0.00 40 1014.7
20260503192541 10 321 12.9 20.9 0.00 0.00 0.00 40 1014.7
20260503192024 10 310 16.1 29.0 0.00 0.00 0.00 39 1013.7
20260503191645 10 332 11.3 14.5 0.00 0.00 0.00 39 1014.7
20260503191555 10 329 12.9 30.6 0.00 0.00 0.00 39 1014.7
20260503191020 9 325 12.9 20.9 0.00 0.00 0.00 39 1013.7
20260503190558 9 318 17.7 19.3 0.00 0.00 0.00 39 1014.7
20260503190544 9 321 16.1 27.4 0.00 0.00 0.00 38 1014.7
20260503190034 10 324 14.5 22.5 0.00 0.00 0.00 39 1014.0
20260503185528 10 310 14.5 30.6 0.00 0.00 0.00 39 1014.7
20260503185520 10 315 16.1 22.5 0.00 0.00 0.00 39 1014.7
20260503185108 10 303 19.3 29.0 0.00 0.00 0.00 38 1013.7
20260503184559 10 319 14.5 22.5 0.00 0.00 0.00 39 1014.7
20260503184541 10 309 16.1 25.7 0.00 0.00 0.00 39 1014.7
20260503184026 10 316 17.7 30.6 0.00 0.00 0.00 40 1013.7
20260503183540 9 310 17.7 27.4 0.00 0.00 0.00 40 1014.7
20260503183520 9 305 20.9 27.4 0.00 0.00 0.00 40 1014.7
20260503183023 9 315 19.3 35.4 0.00 0.00 0.00 39 1014.0
20260503182814 10 318 16.1 19.3 0.00 0.00 0.00 39 1014.7
20260503182525 10 326 16.1 29.0 0.00 0.00 0.00 39 1015.0
20260503182019 10 315 12.9 24.1 0.00 0.00 0.00 39 1014.0
20260503181605 10 319 12.9 25.7 0.00 0.00 0.00 38 1015.0
20260503181540 10 308 12.9 24.1 0.00 0.00 0.00 38 1014.7
20260503181024 10 316 12.9 20.9 0.00 0.00 0.00 38 1014.0
20260503180610 10 309 20.9 29.0 0.00 0.00 0.00 39 1015.0
20260503180544 10 305 20.9 29.0 0.00 0.00 0.00 38 1015.0
20260503180020 10 309 16.1 25.7 0.00 0.00 0.00 40 1014.0
20260503175633 10 298 19.3 25.7 0.00 0.00 0.00 39 1015.0
20260503175549 10 295 19.3 24.1 0.00 0.00 0.00 39 1015.0
20260503175123 10 306 20.9 29.0 0.00 0.00 0.00 40 1014.0
20260503174559 10 294 19.3 24.1 0.00 0.00 0.00 39 1015.0
20260503174545 10 298 19.3 24.1 0.00 0.00 0.00 39 1015.0
20260503174050 10 296 19.3 25.7 0.00 0.00 0.00 40 1014.3